KONTKSBD

Guest
Details From KONT - Ontario Intl
To KSBD - San Bernardino Intl
Flight Number -
Tags Generated
Created
Modified
Stats Distance 19 nm / 35 km
Max Altitude 0 ft / 0 m
Waypoints 2
Social Downloads 0
Likes 0
Share VATSIM

Download

Looking for another format? Having issues loading an existing format? Contact us
Advertisement - Login to hide

Notes

Generated

Route

KONT KSBD

ID Type Via Altitude Latitude Longitude Leg Dist Tot Dist Heading (true) Name
O KONT APT - 0 ft / 0 m 34.05688˚ -117.62282˚ - 0 nm - -
O KSBD APT - 0 ft / 0 m 34.09073˚ -117.25038˚ 18 nm 18 nm 84° / 84° -

Altitude Profile

Advertisement - Login to hide

KONT

Details ICAO KONT (ONT)
Name Ontario Intl
Region United States
Timezone America/Los_Angeles (UTC-7.0)
Stats Elevation 944 ft / 288 m (AMSL)
Location 34.055917° -117.600853°
Runways 2
Magnetic Variation 11.825° E

METAR

KONT 212119Z 27010KT 10SM SCT023 BKN032 19/11 A2987 RMK AO2 SCT V BKN T01890111

Decode

TAF

KONT 211735Z 2118/2224 24009KT P6SM BKN015 OVC025 FM212100 25011G18KT P6SM SCT025 BKN035 FM220400 26006KT P6SM BKN025 FM220700 VRB04KT P6SM OVC018 FM221700 VRB04KT P6SM BKN025 FM222000 25011G18KT P6SM SCT025

Decode

Departure Runways

ID Width Length Bearing (true) Bearing (mag) Surface Threshold Offset Overrun Length
08L 151 ft / 46 m 12,279 ft / 3,743 m 89.96° 78.14° Concrete 997 ft / 304 m 400 ft / 122 m
26L 151 ft / 46 m 10,269 ft / 3,130 m 269.97° 258.15° Concrete 0 ft / 0 m 400 ft / 122 m
26R 151 ft / 46 m 12,279 ft / 3,743 m 269.99° 258.17° Concrete 0 ft / 0 m 400 ft / 122 m
8R 151 ft / 46 m 10,269 ft / 3,130 m 89.95° 78.13° Concrete 0 ft / 0 m 400 ft / 122 m

KSBD

Details ICAO KSBD (SBD)
Name San Bernardino Intl
Region United States
Timezone America/Los_Angeles (UTC-7.0)
Stats Elevation 1,157 ft / 353 m (AMSL)
Location 34.095343° -117.234869°
Runways 1
Magnetic Variation 11.753° E

METAR

KSBD 212050Z 00000KT 5SM HZ BKN024 OVC031 19/12 A2987

Decode

TAF

TAF KSBD 211735Z 2118/2218 VRB04KT 4SM HZ SCT015 OVC022 FM212100 25010KT P6SM SCT025 BKN035 FM220400 24005KT P6SM SCT015 BKN025 FM220700 VRB04KT P6SM OVC015

Decode

Destination Runways

ID Width Length Bearing (true) Bearing (mag) Surface Threshold Offset Overrun Length
06 180 ft / 55 m 9,963 ft / 3,037 m 70.26° 58.51° Asphalt 0 ft / 0 m 1,000 ft / 305 m
24 180 ft / 55 m 9,963 ft / 3,037 m 250.27° 238.52° Asphalt 0 ft / 0 m 1,000 ft / 305 m

Approach Navaids

Runway Type Ident Frequency Range Bearing (true) Bearing (mag) Slope Elevation
06 Localiser ISBD 109.30 MHz 18 nm / 33 km 70.31° 58.56° - 1,086 ft / 331 m (AMSL)
06 Glidescope ISBD 109.30 MHz 10 nm / 19 km 70.27° 58.51° 3.00° 1,157 ft / 353 m (AMSL)

Popular Alternatives